STARLINK-11495, 62275

Orbit data source: Space-Track

STARLINK-11495, 62275 is a payload satellite owned by SpaceX/Seattle (US) in LEO that was launched on Sun, 08 Dec 2024 UTC via an FALCON 9 launch vehicle from the Air Force Eastern Test Range (AFETR). Payload-class satellites include a variety of spacecraft equipped with specific instruments for various scientific and technological missions. These include communications satellites like Starlink; space stations such as the ISS; scientific satellites like the Hubble; Earth observation satellites from companies like Planet Labs, Umbra, and HawkEye 360; GPS; miniature CubeSats for education and research; and military/defense satellites.

Loading next visibility...
Identifier
62275, 2024-237J
Orbit
LEO
Country
Flag of USUS
Related business
Manufacturer
SpaceX/Seattle
Mission
Operational Commercial Communications
Bus & Motor
STARLINK V2MD, Unknown motor
Mass
960 kg wet, ~910 kg dry
Launch date (UTC)
2024-12-08 (2 years ago)
Launch vehicle
FALCON 9
Launch site
Air Force Eastern Test Range (AFETR)
Object type
Payload
Rocket body
Debris
Shape & HBR
Box + 2 Pan, 18.1 m
Radar Cross Section
36.964 m², Large (>1 m²)

Expand to show TLE details & history
Last TLE update: 15 hours ago

TLE from 15 hours ago
0 STARLINK-11495
1 62275U 24237J   26171.36701517  .00167287  00000-0  12813-2 0  9995
2 62275  43.0008 158.3406 0002225 249.3583 110.7047 15.70835880 89148
Epoch: 2026-06-20T08:48Z
TLE epoch observation values (Epoch: 2026-06-20T08:48:30.110Z)
Latitude
0.00003°
Longitude
117.63252°
Altitude
356.808 km
Speed
7.697 km/s
True Right ascension
10h 33m 21s
True Declination
0° 00' 00"
Sunlit
Object was in daylight at epoch
Visualization orbit readout
Latitude
Unknown
Longitude
Unknown
Altitude
Unknown
Speed
Unknown
Apparent Right ascension
Unknown
Apparent Declination
Unknown
Sunlit
N/A
Visualization observer readout
Local Sidereal Time
10:18:50
Azimuth
Unknown
Elevation
Unknown
Doppler factor
Unknown
Orbital elements
Apogee altitude
359.987 km
Perigee altitude
356.989 km
Semi-major axis
6,736.625 km
Eccentricity
0.00022
Inclination
43.0008°
RAAN
158.3406°
Arg. of periapsis
249.3583°
True anomaly
110.72855°
Mean anomaly
110.7047°
Eccentric anomaly
110.71662°
Mean motion
3.92536 °/min
Orbital period
91.71 mins
BSTAR
0.0012813
Loading maneuver chart data...
Computing Atmospheric mass density...
Loading historical data...
Loading historical data...
Loading historical data...
Loading historical data...
Loading historical data...
Loading historical data...
Loading historical data...

Documentation

Showing up to 5 results
|